Flag for Russia

Past Weather in Astrakhan, Russia — Yesterday and Last 2 Weeks

Now
55 °F

Clear.


Feels Like: 52 °F
Forecast: 73 / 50 °F
Wind: 13 mph from East

Location: Astrakhan
Current Time: Oct 2, 2020 at 4:04:12 am
Latest Report: Oct 2, 2020 at 3:00 am
Visibility: 10 mi
Pressure30.18 "Hg
Humidity: 63%
Dew Point: 43 °F
Location of AstrakhanLocation

Past Weather in Astrakhan — Graph

°F

Astrakhan Temperature Yesterday

Maximum temperature yesterday: 73 °F (at 12:00 pm)
Minimum temperature yesterday: 52 °F (at 3:30 am)
Average temperature yesterday: 62 °F

High & Low Weather Summary for the Past Weeks

 TemperatureHumidityPressure
High77 °F (Sep 24, 2:00 pm)100% (Sep 24, 6:30 am)30.45 "Hg (Sep 24, 6:30 am)
Low39 °F (Sep 22, 6:00 am)16% (Sep 23, 2:30 pm)29.71 "Hg (Sep 19, 6:30 am)
Average60 °F51%30.15 "Hg
* Reported Sep 17 2:00 am — Oct 2 2:30 am, Astrakhan. Weather by CustomWeather, © 2020

Note: Actual official high and low records may vary slightly from our data, if they occured in-between our weather recording intervals... More about our weather records

Astrakhan Weather History for the Previous 24 Hours

Scroll right to see more
 ConditionsComfort  
Time TempWeatherWind HumidityBarometerVisibility
2:30 am
Fri, Oct 2
55 °FClear.13 mph59%30.18 "Hg10 mi
2:00 am57 °FClear.13 mph51%30.18 "Hg10 mi
1:30 am57 °FClear.10 mph51%30.18 "Hg10 mi
1:00 am57 °FClear.10 mph55%30.18 "Hg10 mi
12:30 am57 °FClear.10 mph55%30.18 "Hg10 mi
12:00 am57 °FClear.10 mph55%30.18 "Hg10 mi
11:30 pm
Thu, Oct 1
57 °FClear.10 mph59%30.18 "Hg10 mi
11:00 pm57 °FClear.10 mph59%30.18 "Hg10 mi
10:30 pm57 °FClear.10 mph59%30.21 "Hg10 mi
10:00 pm59 °FClear.10 mph55%30.18 "Hg10 mi
9:30 pm59 °FClear.13 mph59%30.18 "Hg10 mi
9:00 pm59 °FClear.13 mph55%30.18 "Hg10 mi
8:30 pm61 °FClear.13 mph52%30.18 "Hg10 mi
8:00 pm61 °FClear.10 mph55%30.18 "Hg10 mi
7:30 pm63 °FClear.10 mph49%30.18 "Hg10 mi
7:00 pm63 °FSunny.13 mph49%30.18 "Hg10 mi
6:30 pm64 °FSunny.15 mph43%30.18 "Hg10 mi
6:00 pm66 °FSunny.20 mph37%30.18 "Hg10 mi
5:30 pm68 °FSunny.17 mph33%30.18 "Hg10 mi
5:00 pm70 °FSunny.22 mph29%30.18 "Hg10 mi
4:30 pm72 °FSunny.20 mph23%30.18 "Hg10 mi
4:00 pm72 °FSunny.22 mph23%30.18 "Hg10 mi
3:30 pm73 °FSunny.24 mph22%30.18 "Hg10 mi
3:00 pm73 °FSunny.24 mph22%30.18 "Hg10 mi
2:30 pm73 °FSunny.24 mph23%30.18 "Hg10 mi
2:00 pm73 °FSunny.26 mph22%30.18 "Hg10 mi
1:30 pm73 °FSunny.26 mph22%30.18 "Hg10 mi
1:00 pm73 °FSunny.24 mph23%30.21 "Hg10 mi
12:30 pm73 °FSunny.22 mph23%30.21 "Hg10 mi
12:00 pm73 °FSunny.22 mph27%30.21 "Hg10 mi
11:30 am72 °FSunny.22 mph33%30.21 "Hg10 mi
11:00 am70 °FSunny.20 mph35%30.21 "Hg10 mi
10:30 am68 °FSunny.20 mph40%30.21 "Hg10 mi
10:00 am66 °FSunny.17 mph43%30.21 "Hg10 mi
9:30 am64 °FSunny.15 mph46%30.21 "Hg10 mi
9:00 am61 °FSunny.15 mph59%30.21 "Hg10 mi
8:30 am59 °FSunny.13 mph63%30.21 "Hg10 mi
8:00 am57 °FSunny.13 mph72%30.21 "Hg10 mi
7:30 am55 °FClear.13 mph72%30.21 "Hg10 mi
7:00 am54 °FClear.13 mph77%30.18 "Hg10 mi
6:30 am54 °FClear.13 mph77%30.18 "Hg10 mi
6:00 am54 °FClear.13 mph72%30.18 "Hg10 mi
5:30 am54 °FClear.10 mph72%30.18 "Hg10 mi
5:00 am54 °FClear.13 mph72%30.18 "Hg10 mi
4:30 am54 °FClear.13 mph67%30.18 "Hg10 mi
4:00 am54 °FClear.13 mph58%30.18 "Hg10 mi
Weather by CustomWeather, © 2020

See weather overview